Wind_Speed
28 29 27 25 23 21 18 17 17 14 16 22 25 24 21 23 25 22 18 22 30 31 29 28 34 37 40 43 46 47 45 45 45 44 43 41 41 42 43 44 45 46 48 50
29 28 24 23 22 19 21 23 22 22 21 26 28 24 24 27 26 24 24 28 31 33 33 34 37 38 41 43 46 48 50 51 50 49 48 48 48 49 49 50 49 49 51 51
25 21 18 21 22 22 26 26 23 20 18 25 29 24 27 30 26 24 25 27 31 34 36 34 35 37 39 42 45 48 50 52 53 52 52 52 53 54 54 55 54 53 52 53
24 21 22 25 26 26 28 23 22 22 21 22 26 20 27 33 31 27 26 27 29 31 34 35 35 37 39 42 44 46 48 50 51 53 54 55 55 56 56 57 57 58 60 63
23 22 25 28 28 27 25 21 20 22 25 25 24 22 27 35 36 32 28 27 29 32 34 35 37 38 40 42 43 45 47 48 49 51 52 53 53 55 56 58 60 63 66 70
23 22 25 27 28 27 23 22 24 25 24 26 24 24 29 38 38 32 29 29 33 36 37 37 37 39 40 41 42 43 44 45 45 46 48 50 52 55 58 61 64 67 70 74
22 23 25 26 27 25 25 24 26 26 25 25 21 24 31 41 41 36 34 36 38 40 39 38 37 38 38 39 39 40 40 42 43 45 48 51 54 57 60 63 67 71 75 78
20 23 22 27 26 25 27 26 26 23 21 19 20 28 38 39 38 38 37 38 40 39 37 37 36 37 38 38 38 39 40 43 45 48 50 53 56 59 63 67 71 75 78 80
21 20 19 25 27 25 24 25 23 24 25 25 25 29 32 35 35 37 38 39 40 37 36 38 38 39 39 39 40 41 43 45 48 50 53 55 58 62 67 69 71 72 72 70
24 27 23 19 25 27 24 23 23 26 28 30 28 30 36 36 37 38 39 41 40 38 39 42 42 42 41 41 42 43 45 47 49 52 54 57 62 65 66 64 62 59 54 49
29 32 32 25 25 27 28 28 29 30 28 29 30 32 38 37 35 36 39 40 39 40 43 46 45 44 43 44 45 46 47 49 51 53 56 60 63 62 57 54 50 46 42 39
34 36 38 36 31 31 34 31 28 31 33 31 29 34 40 40 41 42 41 41 41 43 47 48 47 46 46 46 47 48 49 51 53 55 59 61 58 51 47 44 42 40 38 37
42 40 41 40 38 36 36 33 30 30 31 33 32 36 39 39 40 41 43 43 43 45 47 48 48 48 48 48 49 50 51 52 55 58 59 56 47 41 41 40 39 39 39 38
49 49 48 45 39 35 38 39 37 35 36 36 34 38 40 40 40 41 42 42 44 46 48 48 48 48 49 50 51 51 52 54 57 57 54 44 37 37 38 37 38 39 40 41
56 57 56 54 48 40 38 41 41 43 42 37 36 41 42 42 42 42 41 41 43 46 48 48 48 49 49 50 51 52 53 55 56 52 42 35 33 34 35 36 38 40 41 43
58 62 62 61 58 48 44 43 42 41 39 39 40 44 47 47 44 41 41 44 47 48 48 48 49 49 50 50 51 51 53 53 50 40 32 30 31 32 33 36 38 40 43 44
53 57 59 62 59 52 50 49 46 41 38 38 43 41 40 41 42 44 46 47 48 47 47 48 49 49 49 49 49 51 51 48 39 30 27 27 28 30 32 35 38 41 43 44
50 52 52 52 51 52 54 51 50 45 44 45 45 41 38 39 43 45 46 46 46 46 47 48 48 48 48 47 48 49 46 36 28 23 23 25 27 30 33 37 40 42 43 43
49 50 50 47 47 47 50 53 48 47 51 51 50 51 50 49 48 47 46 44 44 46 46 46 46 46 45 46 47 43 33 24 21 20 22 24 27 31 35 39 42 43 42 41
47 49 50 49 47 47 48 49 50 50 51 54 54 53 50 47 47 46 44 44 44 44 44 43 43 42 43 43 39 30 21 18 18 19 22 25 29 33 38 41 43 43 41 40
41 45 48 45 40 40 42 44 46 48 49 46 44 44 44 44 44 43 42 41 41 40 39 38 38 39 40 35 27 19 16 16 17 19 23 27 32 36 40 43 44 42 40 38
36 42 44 46 50 49 44 41 44 42 36 33 33 35 36 37 37 37 37 37 37 35 34 34 35 36 31 23 17 14 14 15 17 21 25 30 35 39 43 43 42 40 38 37
29 36 40 40 43 44 43 42 40 37 34 34 34 31 30 31 31 31 32 32 31 29 30 32 33 29 20 14 11 12 13 16 19 24 28 33 38 41 43 42 40 40 39 39
20 24 33 35 37 39 40 35 27 23 24 25 25 26 26 26 26 27 28 26 25 27 29 30 25 18 12 9 9 11 13 17 22 26 31 35 39 42 42 40 39 39 40 40
17 20 24 28 29 29 25 23 21 21 23 23 24 24 25 25 26 25 23 22 24 27 27 22 15 10 8 7 8 11 15 19 24 28 33 37 40 40 41 41 39 39 39 39
14 17 21 25 27 29 28 26 23 22 22 22 21 23 24 24 23 21 20 22 24 24 20 13 8 7 6 6 8 12 16 21 25 30 34 37 39 39 40 40 40 39 39 38
Wind_Direction
254 255 258 260 259 257 241 234 241 245 248 243 249 256 257 257 262 265 256 246 257 272 278 277 285 293 299 301 304 310 313 314 313 311 308 305 303 301 299 297 297 296 294 292
253 254 255 252 248 249 251 247 243 232 237 250 254 259 258 257 263 262 252 251 260 270 273 277 285 291 295 298 302 305 307 307 307 307 307 307 305 303 302 301 299 297 295 291
253 252 251 255 245 243 246 248 245 242 247 261 266 263 259 265 266 266 263 264 267 273 279 281 283 285 287 291 295 298 300 302 304 305 305 305 304 303 302 301 300 299 296 292
249 240 235 244 244 242 250 254 253 243 235 246 268 270 261 265 268 271 271 273 278 282 283 281 279 280 284 288 292 295 297 299 300 301 302 302 302 301 300 300 299 298 297 296
246 242 239 245 252 251 252 248 247 253 248 238 243 254 255 262 269 274 272 273 283 289 287 284 283 285 287 290 294 296 297 298 298 298 298 299 298 298 298 297 297 297 296 296
249 241 245 245 252 257 249 246 243 241 245 247 242 238 254 262 268 272 271 278 288 292 291 288 288 289 291 295 296 297 297 298 298 298 298 297 297 297 297 297 297 296 296 295
254 248 241 245 246 249 247 243 245 249 249 252 254 243 247 255 263 269 274 283 291 293 293 293 293 294 295 298 299 299 299 300 300 300 299 298 298 298 298 298 297 297 296 295
247 257 251 250 256 246 249 246 241 242 251 265 258 242 240 245 252 261 270 281 289 292 294 295 296 298 300 302 303 303 303 302 301 300 300 299 300 300 301 301 301 299 298 296
234 245 261 258 259 253 240 248 251 243 240 245 258 263 257 255 256 261 267 276 284 289 293 297 300 303 305 306 306 305 304 303 303 302 302 303 304 305 306 305 304 303 301 299
240 228 227 250 247 250 247 235 241 246 247 247 248 263 271 265 264 265 265 269 276 283 291 297 300 303 306 307 306 305 304 304 304 304 305 306 308 310 310 309 309 308 308 307
254 249 236 235 246 238 247 252 240 237 243 251 255 256 258 264 267 267 264 267 274 283 292 296 299 303 307 307 307 306 305 305 306 307 308 310 312 313 312 312 313 315 315 314
237 245 248 238 235 246 248 252 254 246 240 240 247 258 261 263 268 270 271 275 281 288 293 296 300 305 307 307 307 307 307 307 308 309 311 313 314 314 315 317 320 321 321 319
228 230 238 241 235 237 247 242 239 246 249 246 244 254 258 263 265 268 272 277 282 287 292 297 301 304 306 307 307 308 308 309 310 311 313 314 314 315 318 321 323 324 324 322
231 230 232 234 237 237 249 251 246 244 246 250 248 252 255 259 263 265 269 275 280 285 290 296 301 303 305 306 307 308 309 310 311 313 314 314 314 317 321 324 327 327 327 325
235 234 234 236 235 230 239 250 250 244 239 243 249 251 254 257 261 266 272 276 280 287 292 297 299 301 304 305 307 308 309 311 313 314 314 313 315 319 323 327 329 331 330 328
242 242 240 240 239 237 236 246 256 257 248 236 242 247 248 252 260 268 275 281 287 290 294 297 299 301 303 305 306 308 311 313 314 313 313 314 318 323 326 330 333 334 333 330
241 247 248 247 246 244 240 238 245 254 258 247 240 245 249 253 261 270 278 283 287 291 294 296 298 301 302 304 307 310 312 313 312 312 313 317 321 325 329 332 334 334 334 332
244 245 249 253 250 242 243 240 239 242 247 246 245 249 260 269 274 277 279 283 287 290 292 294 297 300 302 305 308 311 312 311 310 311 315 320 324 327 330 332 333 334 334 332
246 242 243 246 248 247 242 241 238 239 245 249 254 259 265 272 276 277 280 285 287 289 291 294 297 300 303 306 309 310 309 307 308 313 319 323 327 329 330 332 333 334 334 333
241 239 238 240 241 234 232 236 238 242 246 251 254 258 263 269 272 276 280 282 284 286 289 293 296 300 304 308 309 307 303 305 310 316 322 326 328 329 331 332 333 334 334 334
231 230 232 233 235 232 234 239 241 243 244 248 252 256 262 267 272 276 277 280 283 286 289 294 299 303 307 308 306 299 299 305 313 320 325 327 328 329 331 333 334 334 334 333
230 224 226 233 240 243 243 240 240 242 243 248 253 259 265 268 271 275 279 281 284 288 292 298 303 306 306 303 296 293 300 310 318 323 326 328 329 331 333 333 334 334 334 333
238 225 222 227 232 235 236 239 241 237 243 255 262 265 266 269 273 277 279 281 284 289 296 301 305 305 300 290 285 294 307 317 324 326 328 329 331 333 333 334 335 336 335 335
235 220 218 224 230 236 235 232 228 234 249 258 261 263 266 270 275 278 280 281 286 294 301 304 303 295 282 275 285 302 316 323 326 328 330 332 334 335 336 338 340 340 339 338
236 220 219 227 231 230 227 234 243 252 257 260 261 263 266 271 276 279 280 286 294 300 303 301 290 269 258 270 295 314 323 327 329 332 335 337 338 339 340 342 345 344 342 341
217 213 220 227 230 232 238 247 250 249 249 253 259 263 267 271 274 277 284 293 300 303 299 286 257 238 248 281 311 323 328 332 336 339 341 342 343 344 344 344 346 346 345 345
Height
5850 5851 5853 5855 5857 5860 5862 5864 5867 5872 5873 5870 5867 5867 5867 5866 5864 5864 5864 5862 5855 5854 5853 5851 5847 5843 5838 5834 5829 5824 5821 5822 5822 5822 5820 5817 5814 5810 5806 5804 5801 5796 5792 5788
5843 5845 5849 5850 5852 5855 5858 5860 5862 5864 5865 5863 5861 5860 5860 5858 5858 5858 5857 5855 5851 5849 5849 5848 5845 5842 5837 5831 5826 5822 5819 5817 5815 5812 5809 5806 5802 5799 5796 5793 5790 5786 5782 5778
5837 5842 5843 5844 5846 5850 5851 5853 5855 5857 5860 5857 5855 5855 5853 5850 5851 5851 5851 5849 5847 5845 5843 5844 5843 5840 5835 5831 5827 5823 5818 5814 5809 5805 5801 5797 5793 5789 5785 5782 5778 5774 5769 5764
5832 5836 5838 5840 5842 5844 5844 5846 5848 5850 5852 5853 5851 5850 5847 5841 5842 5844 5844 5842 5841 5840 5838 5838 5836 5834 5831 5827 5824 5820 5815 5810 5805 5800 5795 5790 5785 5780 5776 5771 5767 5763 5757 5751
5826 5830 5832 5834 5835 5837 5838 5841 5843 5844 5844 5846 5848 5847 5842 5834 5832 5835 5836 5834 5834 5833 5832 5830 5828 5826 5824 5821 5818 5814 5809 5804 5799 5794 5789 5783 5778 5772 5767 5762 5756 5751 5744 5737
5821 5824 5827 5828 5830 5830 5832 5835 5836 5836 5838 5838 5840 5842 5838 5825 5824 5828 5828 5828 5827 5826 5824 5822 5820 5818 5816 5813 5810 5806 5801 5796 5791 5786 5781 5775 5769 5763 5758 5752 5745 5738 5731 5722
5816 5818 5820 5822 5824 5825 5827 5829 5830 5830 5831 5832 5835 5836 5833 5820 5820 5822 5823 5822 5821 5819 5817 5815 5813 5811 5808 5805 5801 5797 5792 5787 5782 5777 5772 5766 5760 5753 5747 5739 5732 5723 5715 5706
5811 5813 5815 5816 5817 5819 5819 5822 5824 5826 5828 5829 5828 5827 5818 5817 5816 5817 5818 5817 5815 5813 5811 5809 5806 5803 5800 5797 5792 5788 5783 5778 5773 5768 5762 5755 5749 5742 5734 5725 5715 5705 5695 5685
5806 5810 5812 5810 5810 5812 5814 5815 5818 5820 5821 5822 5821 5814 5813 5813 5812 5813 5813 5811 5809 5807 5805 5802 5799 5796 5792 5788 5784 5779 5774 5768 5763 5757 5751 5744 5737 5728 5719 5708 5697 5686 5675 5665
5798 5800 5803 5802 5802 5803 5807 5810 5813 5813 5813 5814 5817 5813 5807 5807 5807 5807 5805 5803 5802 5801 5798 5795 5791 5788 5784 5780 5775 5770 5765 5759 5753 5746 5739 5731 5723 5713 5703 5692 5681 5670 5659 5650
5791 5792 5795 5798 5797 5799 5801 5802 5803 5805 5807 5808 5809 5809 5800 5800 5800 5798 5795 5794 5794 5793 5790 5787 5783 5780 5776 5771 5766 5760 5755 5748 5742 5734 5726 5718 5709 5699 5689 5679 5669 5659 5650 5642
5782 5783 5783 5787 5792 5792 5793 5795 5796 5797 5798 5800 5802 5800 5792 5794 5793 5791 5788 5788 5787 5785 5781 5778 5774 5771 5766 5761 5755 5750 5744 5737 5730 5722 5714 5706 5696 5687 5678 5670 5661 5652 5644 5636
5768 5770 5772 5776 5782 5784 5783 5786 5788 5790 5791 5791 5794 5791 5786 5786 5785 5783 5781 5781 5780 5777 5774 5770 5766 5762 5757 5751 5745 5739 5733 5726 5719 5711 5702 5694 5685 5678 5670 5662 5654 5646 5638 5631
5757 5758 5761 5765 5771 5778 5777 5777 5780 5782 5782 5782 5784 5781 5779 5777 5776 5775 5774 5774 5772 5770 5767 5763 5759 5754 5748 5742 5735 5729 5722 5715 5708 5700 5691 5683 5677 5670 5663 5656 5648 5640 5633 5625
5743 5746 5750 5754 5759 5764 5767 5765 5767 5768 5769 5773 5773 5769 5767 5768 5767 5767 5767 5766 5763 5761 5758 5755 5751 5745 5740 5733 5726 5720 5713 5705 5697 5689 5682 5676 5670 5664 5657 5650 5643 5635 5627 5618
5729 5733 5738 5741 5747 5752 5755 5756 5755 5757 5758 5760 5757 5754 5755 5758 5759 5759 5759 5758 5755 5753 5750 5746 5741 5736 5731 5724 5717 5710 5704 5696 5688 5681 5675 5670 5664 5659 5652 5645 5637 5629 5620 5611
5716 5719 5723 5727 5735 5738 5741 5747 5749 5749 5748 5749 5743 5744 5747 5750 5751 5752 5751 5750 5747 5745 5742 5737 5732 5727 5721 5715 5709 5702 5695 5687 5680 5675 5670 5665 5660 5654 5648 5640 5632 5623 5614 5604
5705 5708 5711 5715 5721 5721 5729 5735 5738 5740 5735 5735 5734 5738 5739 5741 5743 5743 5743 5742 5740 5737 5733 5728 5723 5718 5712 5707 5701 5694 5687 5680 5675 5670 5666 5661 5656 5650 5643 5635 5626 5617 5607 5597
5693 5697 5701 5703 5705 5710 5715 5721 5727 5727 5725 5729 5731 5732 5732 5734 5734 5735 5736 5734 5732 5728 5724 5720 5715 5710 5704 5699 5692 5686 5680 5675 5671 5667 5663 5657 5652 5645 5637 5629 5620 5610 5601 5591
5679 5683 5688 5691 5693 5697 5702 5706 5712 5716 5716 5720 5723 5724 5725 5726 5726 5729 5729 5726 5723 5719 5716 5711 5707 5702 5697 5691 5685 5679 5675 5672 5668 5664 5659 5654 5647 5640 5632 5623 5614 5604 5594 5584
5664 5669 5675 5679 5681 5683 5690 5696 5701 5706 5707 5711 5713 5715 5716 5718 5719 5719 5718 5716 5714 5711 5707 5703 5699 5694 5689 5684 5679 5675 5673 5670 5666 5661 5656 5650 5643 5636 5627 5617 5608 5598 5589 5579
5652 5658 5665 5671 5673 5678 5683 5687 5692 5696 5698 5701 5704 5707 5709 5710 5709 5709 5709 5707 5705 5702 5699 5696 5692 5687 5682 5678 5675 5673 5670 5667 5663 5658 5653 5646 5639 5630 5621 5612 5602 5593 5584 5574
5645 5649 5656 5661 5666 5671 5674 5678 5683 5688 5691 5695 5698 5700 5701 5702 5702 5702 5701 5699 5697 5695 5693 5689 5685 5681 5677 5675 5673 5671 5668 5665 5660 5655 5649 5642 5634 5625 5616 5607 5597 5587 5577 5568
5640 5643 5649 5654 5660 5666 5670 5674 5677 5681 5685 5689 5691 5693 5695 5696 5696 5695 5694 5693 5691 5689 5686 5683 5679 5676 5674 5673 5672 5670 5667 5663 5658 5652 5646 5638 5630 5620 5610 5601 5592 5581 5571 5562
5638 5641 5645 5651 5656 5660 5664 5667 5672 5676 5680 5683 5685 5687 5689 5689 5689 5689 5688 5687 5686 5683 5680 5677 5674 5673 5672 5672 5671 5668 5665 5661 5655 5649 5642 5634 5625 5615 5605 5596 5587 5577 5567 5557
5638 5641 5645 5649 5653 5657 5661 5664 5668 5671 5675 5678 5680 5682 5683 5684 5684 5684 5683 5682 5680 5677 5675 5672 5672 5672 5672 5671 5670 5667 5663 5659 5653 5646 5638 5630 5620 5611 5601 5592 5583 5574 5564 5554